2-d.jp alexa rank chart, 2-d.jp alexa rank daily changes

2-d.jp alexa rank chart, 2-d.jp alexa rank daily changes

2-d.jp
Actual rank:
44 884

RANK HISTORY

Date Rank Diff
2017/08/17 44 884 -130
2017/08/16 45 014 -1 130
2017/08/15 46 144 -681
2017/08/14 46 825 +480
2017/08/13 46 345 +454
2017/08/12 45 891 -597
2017/08/11 46 488 -583
2017/08/10 47 071 +122
2017/08/09 46 949 -504
2017/08/08 47 453 -1 918
2017/08/07 49 371 +404
2017/08/06 48 967 +2 073
2017/08/05 46 894 -631
2017/08/04 47 525 -1 353
2017/08/03 48 878 -646
2017/08/02 49 524 +91
2017/08/01 49 433 -544
2017/07/31 49 977 -38
2017/07/30 50 015 +1 537
2017/07/29 48 478 -365
2017/07/28 48 843 +240
2017/07/27 48 603 +1 160
2017/07/26 47 443 +3 882
2017/07/25 43 561 +1 023
2017/07/24 42 538 +694
2017/07/23 41 844 +512
2017/07/22 41 332 +2 095
2017/07/21 39 237 +1 140
2017/07/20 38 097 +611
2017/07/19 37 486 +288
2017/07/18 37 198 +857
2017/07/17 36 341 +1 085
2017/07/16 35 256 -129
2017/07/15 35 385 -364
2017/07/14 35 749 +283
2017/07/13 35 466 +780
2017/07/12 34 686 -321
2017/07/11 35 007 +1 580
2017/07/10 33 427 +429
2017/07/09 32 998 +379
2017/07/08 32 619 +405
2017/07/07 32 214 +414
2017/07/06 31 800 -1 002
2017/07/05 32 802 +683
2017/07/04 32 119 +674
2017/07/03 31 445 +541
2017/07/02 30 904 +686
2017/07/01 30 218 +1 648
2017/06/30 28 570 +179
2017/06/29 28 391 +59
2017/06/28 28 332 -99
2017/06/27 28 431 -408
2017/06/26 28 839 -1 168
2017/06/25 30 007 -102
2017/06/24 30 109 -283
2017/06/23 30 392 -223
2017/06/22 30 615 -722
2017/06/21 31 337 -640
2017/06/20 31 977 +23
2017/06/19 31 954 -64
2017/06/18 32 018

WIDGET FOR YOUR SITE

DOMAINS WITH THE NEAREST RANK

Domain Rank
humankinetics.com 44 879
cacaoweb.org 44 880
latina.pe 44 881
alot.com 44 882
ryver.com 44 883
2-d.jp 44 884
carlsguides.com 44 885
mangaclub.ru 44 886
medpagetoday.com 44 887
tug.org 44 888
lc123.net 44 889

DOMAINS WITH THE NEAREST RANK BY TLD .jp

Domain Rank
patagonia.jp 44 730
horti.jp 44 749
ninja-x.jp 44 759
theresponse.jp 44 846
goo.jp 44 856
2-d.jp 44 884
smtb.jp 44 940
vokka.jp 44 954
keio.jp 44 980
shopping-now.jp 45 002
pet-home.jp 45 010